Flag for U.S.A. Weather past 2 weeks in Aliso Viejo, California, U.S.A.

Now
56 °F

Clear.


Feels Like: 56 °F
Forecast: 52 / 76 °F
Wind: No wind

Location: John Wayne Airport-Orange County Airport

Current Time: Dec 22, 2014 at 3:23:35 AM

Latest Report: Dec 22, 2014 at 2:53 AM


Visibility: 5 mi

Pressure: 30.03 "Hg

Humidity: 84%

Dew point: 51 °F

Location of Aliso ViejoLocation

Historic Weather in Aliso Viejo — Graph

°F

Aliso Viejo temperature yesterday

Maximum temperature yesterday: 69 °F (at 1:53 PM)
Minimum temperature yesterday: 54 °F (at 6:53 AM)
Average temperature yesterday: 62 °F

Past Weeks' High & Low Weather Summary

 TemperatureHumidityPressure
High78 °F (Dec 8, 12:53 PM)88% (Dec 12, 6:00 AM)30.24 "Hg (Dec 12, 6:00 AM)
Low50 °F (Dec 14, 5:53 AM)39% (Dec 7, 2:53 PM)29.85 "Hg (Dec 12, 3:53 AM)
Average62 °F68%30.06 "Hg
* Reported Dec 7 1:53 AM — Dec 22 1:53 AM, Aliso Viejo, Weather by CustomWeather, © 2014

Note: Actual official high and low records may vary slightly from our data, if they occured in-between our weather recording intervals... More about our weather records

Advertising

Aliso Viejo weather history for previous 24 hours

 ConditionsComfort  
Time TempWeatherWind HumidityBarometerVisibility
1:53 AM
Dec 22
57 °FClear.No wind83%30.03 "Hg6 mi
12:53 AM57 °FClear.5 mph81%30.04 "Hg6 mi
11:53 PM
Dec 21
58 °FClear.No wind81%30.04 "Hg7 mi
10:53 PM60 °FFog.No wind80%30.06 "Hg4 mi
9:53 PM60 °FFog.No wind80%30.04 "Hg4 mi
8:53 PM62 °FFog.No wind78%30.06 "Hg5 mi
7:53 PM62 °FFog.No wind80%30.05 "Hg5 mi
6:53 PM63 °FPassing clouds.No wind75%30.05 "Hg7 mi
5:53 PM64 °FPassing clouds.No wind75%30.04 "Hg10 mi
4:53 PM65 °FPassing clouds.No wind73%30.04 "Hg10 mi
3:53 PM66 °FPartly sunny.6 mph68%30.04 "Hg10 mi
2:53 PM68 °FPartly sunny.7 mph63%30.04 "Hg10 mi
1:53 PM69 °FOvercast.No wind57%30.04 "Hg10 mi
12:53 PM68 °FOvercast.No wind57%30.07 "Hg10 mi
11:53 AM67 °FOvercast.No wind59%30.11 "Hg10 mi
10:53 AM66 °FMore clouds than sun.5 mph63%30.14 "Hg10 mi
9:53 AM65 °FSunny.No wind66%30.15 "Hg10 mi
8:53 AM61 °FOvercast.No wind70%30.15 "Hg10 mi
8:00 AM57 °FPassing clouds.No wind72%30.14 "Hg9 mi
6:53 AM54 °FPartly sunny.No wind80%30.13 "Hg8 mi
5:53 AM55 °FPassing clouds.No wind77%30.12 "Hg9 mi
4:53 AM57 °FClear.No wind74%30.11 "Hg10 mi
3:53 AM57 °FPassing clouds.3 mph74%30.10 "Hg10 mi
Weather by CustomWeather, © 2014

See weather overviewHow to use our weather pages